Home > Weather > Gomel > Past weeks

Flag for Belarus Weather for the Past 2 Weeks in Gomel, Belarus

Now
59 °F

Sunny.


Feels Like: 58 °F
Forecast: 46 / 65 °F
Wind: 6 mph from East

Location: Gomel'

Current Time: Apr 30, 2016 at 8:39:52 PM

Latest Report: Apr 30, 2016 at 8:00 PM


Visibility: 10 mi

Pressure: 30.21 "Hg

Humidity: 55%

Dew Point: 43 °F

Location of GomelLocation

Historic Weather in Gomel — Graph

°F

Gomel Temperature Yesterday

Maximum temperature yesterday: 64 °F (at 4:00 PM)
Minimum temperature yesterday: 39 °F (at 5:00 AM)
Average temperature yesterday: 54 °F

High & Low Weather Summary for the Past Weeks

 TemperatureHumidityPressure
High66 °F (Apr 24, 4:00 PM)100% (Apr 18, 5:00 AM)30.21 "Hg (Apr 18, 5:00 AM)
Low34 °F (Apr 16, 6:30 AM)34% (Apr 28, 6:00 PM)29.42 "Hg (Apr 26, 9:30 AM)
Average49 °F71%29.86 "Hg
* Reported Apr 15 7:30 PM — Apr 30 7:30 PM, Gomel, Weather by CustomWeather, © 2016

Note: Actual official high and low records may vary slightly from our data, if they occured in-between our weather recording intervals... More about our weather records

Advertising

Gomel Weather History for the Previous 24 Hours

Scroll right to see more
 ConditionsComfort  
Time TempWeatherWind HumidityBarometerVisibility
7:30 PM
Sat, Apr 30
63 °FSunny.6 mph45%30.18 "Hg10 mi
7:00 PM63 °FSunny.3 mph45%30.18 "Hg10 mi
6:30 PM61 °FSunny.3 mph48%30.18 "Hg10 mi
6:00 PM61 °FSunny.6 mph48%30.18 "Hg10 mi
5:30 PM63 °FSunny.6 mph45%30.18 "Hg10 mi
5:00 PM63 °FSunny.1 mph45%30.18 "Hg10 mi
4:30 PM61 °FSunny.1 mph52%30.21 "Hg10 mi
4:00 PM61 °FPartly sunny.1 mph52%30.21 "HgN/A
3:30 PM61 °FPartly sunny.1 mph52%30.21 "HgN/A
3:00 PM61 °FPartly sunny.1 mph52%30.21 "HgN/A
2:30 PM59 °FPartly sunny.3 mph55%30.21 "HgN/A
2:00 PM59 °FPartly sunny.3 mph55%30.21 "HgN/A
1:30 PM59 °FPartly sunny.6 mph55%30.21 "HgN/A
1:00 PM59 °FPartly sunny.6 mph55%30.21 "HgN/A
12:30 PM55 °FPartly sunny.3 mph67%30.21 "HgN/A
12:00 PM55 °FPartly sunny.3 mph67%30.21 "HgN/A
11:30 AM54 °FPartly sunny.8 mph72%30.21 "HgN/A
11:00 AM54 °FPartly sunny.10 mph72%30.21 "HgN/A
10:30 AM50 °FPartly sunny.10 mph82%30.21 "HgN/A
10:00 AM50 °FLow clouds.10 mph82%30.21 "HgN/A
9:30 AM48 °FLow clouds.10 mph94%30.21 "HgN/A
9:00 AM48 °FLow clouds.10 mph94%30.21 "Hg5 mi
8:30 AM45 °FLow clouds.8 mph100%30.21 "Hg4 mi
8:00 AM45 °FFog.10 mph100%30.21 "Hg0 mi
7:30 AM41 °FFog.3 mph100%30.21 "Hg0 mi
7:00 AM41 °FFog.6 mph100%30.21 "Hg0 mi
6:30 AM39 °FFog.3 mph100%30.21 "Hg0 mi
6:00 AM39 °FFog.3 mph100%30.18 "Hg0 mi
5:00 AM41 °FFog.6 mph100%30.18 "Hg0 mi
4:49 AM43 °FFog.3 mph93%30.18 "Hg0 mi
4:00 AM43 °FFog.3 mph93%30.18 "Hg2 mi
3:00 AM45 °FClear.6 mph93%30.18 "Hg10 mi
2:00 AM48 °FPassing clouds.3 mph82%30.18 "HgN/A
1:00 AM48 °FPassing clouds.3 mph82%30.18 "HgN/A
12:00 AM50 °FClear.8 mph76%30.18 "Hg10 mi
11:00 PM
Fri, Apr 29
50 °FClear.6 mph67%30.18 "Hg10 mi
10:00 PM52 °FClear.6 mph67%30.18 "Hg10 mi
9:00 PM55 °FPassing clouds.8 mph55%30.15 "HgN/A
8:00 PM61 °FPassing clouds.6 mph45%30.15 "HgN/A
Weather by CustomWeather, © 2016

See weather overviewHow to use our weather pages